Change the Weather History Date:

Sunday, August 10, 2014

  Actual Average Record
Temperature  
Mean Temperature 72 °F -  
Max Temperature 91 °F 85 °F 100 °F (1969)
Min Temperature 55 °F 55 °F 50 °F (1974)
Cooling Degree Days 7    
Growing Degree Days 22 (Base 50)    
Moisture  
Dew Point 40 °F    
Average Humidity 35    
Maximum Humidity 54    
Minimum Humidity 14    
Precipitation  
Precipitation 0.01 in - - ()
Sea Level Pressure  
Sea Level Pressure 30.10 in    
Wind  
Wind Speed 7 mph (North)    
Max Wind Speed 18 mph    
Max Gust Speed 25 mph    
Visibility 10 miles    
Events Thunderstorm    
Averages and records for this station are not official NWS values.
T = Trace of Precipitation, MM = Missing Value Source: NWS Daily Summary

Daily Weather History Graph

Daily Weather History Graph

Search for Another Location

Airport or City:

Trip Planner

Search our weather history database for the weather conditions in past years. The results will help you decide how hot, cold, wet, or windy it might be!

Date:

Astronomy

Aug. 10, 2014 Rise Set
Actual Time 6:30 AM MDT 8:25 PM MDT
Civil Twilight 6:01 AM MDT 8:54 PM MDT
Nautical Twilight 5:25 AM MDT 9:29 PM MDT
Astronomical Twilight 4:47 AM MDT 10:08 PM MDT
Moon 8:14 PM MDT (8/10) 6:27 AM MDT (8/10)
Length of Visible Light 14h 53m
Length of Day
13h 54m
Full, 100% of the Moon is Illuminated
Aug 10
Full
Aug 10
Full
Aug 17
Last Quarter
Aug 25
New
Sep 2
First Quarter

Hourly Weather History & Observations

Time (MDT) Temp. Dew Point Humidity Pressure Visibility Wind Dir Wind Speed Gust Speed Precip Events Conditions
12:53 AM 62.1 °F 41.0 °F 46% 29.99 in 10.0 mi NNE 6.9 mph - N/A   Clear
1:53 AM 61.0 °F 39.0 °F 44% 30.02 in 10.0 mi NNE 10.4 mph - N/A   Clear
2:53 AM 62.6 °F 37.4 °F 39% 30.26 in 10.0 mi NNW 3.5 mph - N/A   Clear
3:53 AM 57.0 °F 39.0 °F 51% 30.04 in 10.0 mi Calm Calm - N/A   Clear
4:53 AM 57.0 °F 39.9 °F 53% 30.09 in 10.0 mi Calm Calm - N/A   Clear
5:53 AM 55.4 °F 39.2 °F 54% 30.27 in 10.0 mi Calm Calm - N/A   Clear
6:53 AM 57.9 °F 39.9 °F 51% 30.10 in 10.0 mi NNE 4.6 mph - N/A   Clear
7:53 AM 66.2 °F 39.2 °F 37% 30.29 in 10.0 mi Calm Calm - N/A   Clear
8:53 AM 70.0 °F 42.1 °F 36% 30.08 in 10.0 mi Calm Calm - N/A   Clear
9:53 AM 77.0 °F 41.0 °F 28% 30.06 in 10.0 mi South 3.5 mph - N/A   Clear
10:53 AM 80.1 °F 41.0 °F 25% 30.06 in 10.0 mi Variable 5.8 mph - N/A   Clear
11:53 AM 82.9 °F 37.0 °F 19% 30.05 in 10.0 mi South 9.2 mph - N/A   Clear
12:53 PM 84.0 °F 33.1 °F 16% 30.05 in 10.0 mi Variable 5.8 mph - N/A   Clear
1:53 PM 84.9 °F 34.0 °F 16% 30.03 in 10.0 mi SSW 8.1 mph - N/A   Clear
2:53 PM 89.1 °F 33.1 °F 14% 29.97 in 10.0 mi South 9.2 mph - N/A   Clear
3:53 PM 89.1 °F 33.1 °F 14% 29.99 in 10.0 mi WSW 8.1 mph - N/A   Mostly Cloudy
4:53 PM 89.1 °F 37.0 °F 16% 29.98 in 10.0 mi ENE 17.3 mph - N/A   Overcast
5:18 PM 84.0 °F 37.9 °F 19% 30.23 in 10.0 mi ENE 16.1 mph - N/A   Overcast
5:27 PM 84.0 °F 36.0 °F 18% 30.23 in 10.0 mi ENE 15.0 mph - N/A Thunderstorm Thunderstorm
5:48 PM 77.0 °F 44.6 °F 32% 30.24 in 10.0 mi NNW 17.3 mph - 0.00 in Thunderstorm Thunderstorm
5:53 PM 77.0 °F 42.1 °F 29% 30.06 in 10.0 mi NNW 16.1 mph 24.2 mph 0.00 in Thunderstorm Thunderstorm
6:00 PM 75.9 °F 46.9 °F 36% 30.26 in 10.0 mi North 10.4 mph 23.0 mph N/A Thunderstorm Thunderstorm
6:49 PM 69.8 °F 46.4 °F 43% 30.29 in 10.0 mi NW 17.3 mph 23.0 mph 0.01 in   Mostly Cloudy
6:53 PM 69.1 °F 46.9 °F 45% 30.12 in 10.0 mi NW 18.4 mph - 0.01 in   Scattered Clouds
7:53 PM 69.1 °F 48.0 °F 47% 30.08 in 10.0 mi NW 17.3 mph 25.3 mph N/A   Clear
8:53 PM 70.0 °F 44.1 °F 39% 30.06 in 10.0 mi SW 3.5 mph - N/A   Clear
9:53 PM 68.0 °F 44.1 °F 42% 30.03 in 10.0 mi East 5.8 mph - N/A   Clear
10:53 PM 64.9 °F 42.1 °F 43% 30.04 in 10.0 mi NNE 4.6 mph - N/A   Clear
11:53 PM 63.0 °F 44.1 °F 50% 30.04 in 10.0 mi North 5.8 mph - N/A   Clear